Weather Roundup
Issued by NWS

Home | Current Version | Previous Version | Text Only | Print | Product List | Glossary On
Versions: 1 2 3 4 5 6 7 8 9 10 11 12 13 14 15 16 17 18 19 20 21 22 23 24 25 26 27 28 29 30 31 32 33 34 35 36 37 38 39 40 41 42 43 44 45 46 47 48 49 50
028
NZUS93 KARX 192059
HRRWXR

CURRENT HOURLY OBSERVATIONS ACROSS
MUCH OF THE UPPER MISSISSIPPI VALLEY
NATIONAL WEATHER SERVICE LA CROSSE WI
400 PM CDT THU OCT 19 2017


...SOUTHEAST MINNESOTA...


CITY           SKY/WX    TMP DP  RH WIND       PRES   REMARKS
ROCHESTER      SUNNY     71  36  27 S15       30.05S
ROCHESTER/MAYO FAIR      72  32  23 S9G18     30.05S
WINONA         SUNNY     73  34  23 SW9G16    30.05S
AUSTIN         SUNNY     70  34  26 S12G20    30.04F
ALBERT LEA     NOT AVBL
DODGE CENTER   SUNNY     72  30  21 S15G21    30.04S
PRESTON        SUNNY     70  33  24 S14       30.07S
OWATONNA       SUNNY     72  37  28 S15       30.01F
FARIBAULT      SUNNY     72  36  26 S13       30.01F
$$

...ELSEWHERE IN MINNESOTA...


CITY           SKY/WX    TMP DP  RH WIND       PRES   REMARKS
MINNEAPOLIS    MOSUNNY   73  34  23 S20G26    29.97F
INTNL FALLS    SUNNY     67  31  26 VRB7      29.82F
DULUTH         SUNNY     66  33  29 SW13      29.93F
RED WING       SUNNY     75  27  16 S10       30.00S
REDWOOD FALLS  SUNNY     74  40  29 S22       29.91F
MANKATO        SUNNY     73  37  27 S14G20    29.98F
WORTHINGTON    SUNNY     74  44  34 S20G25    29.96F
FAIRMONT       SUNNY     72  41  32 S21       29.99F
$$

...SOUTHWEST WISCONSIN...


CITY           SKY/WX    TMP DP  RH WIND       PRES   REMARKS
LA CROSSE      SUNNY     71  32  23 S16       30.06F
PRAIRIE DU CHI CLOUDY    71  30  22 SE6       30.09F
BOSCOBEL       CLOUDY    73  32  22 VRB7      30.10F
LONE ROCK      NOT AVBL
PLATTEVILLE    CLOUDY    70  36  29 S7        30.13S
FORT MC COY    SUNNY     71  35  27 SW7       30.07F
MAUSTON-NEW LI CLEAR     72  33  24 S7        30.07S
VIROQUA        FAIR      69  36  29 S9        30.09F
WIS DELLS      SUNNY     68  34  28 S10       30.10F
$$

...ELSEWHERE IN WISCONSIN...


CITY           SKY/WX    TMP DP  RH WIND       PRES   REMARKS
MILWAUKEE      MOSUNNY   64  32  30 SE13      30.15R
MADISON        PTSUNNY   67  33  28 S9        30.12S
GREEN BAY      SUNNY     68  32  26 SW9       30.08S
EAU CLAIRE     NOT AVBL
BLACK RVR FLS  FAIR      73  30  20 S6        30.05F
MEDFORD        SUNNY     65  33  29 S9        30.06F
WAUSAU         SUNNY     67  30  25 SW7       30.05S
WIS RAPIDS     SUNNY     70  35  27 S8        30.08F
MARSHFIELD     SUNNY     69  30  23 S9        30.05F
RICE LAKE      MOSUNNY   70  31  23 S12       30.01F
$$

...NORTHEAST IOWA...


CITY           SKY/WX    TMP DP  RH WIND       PRES   REMARKS
WATERLOO       CLOUDY    71  35  26 SE12      30.06F
DUBUQUE        SUNNY     69  34  27 S8        30.12F
DECORAH        MOSUNNY   72  32  23 S10G17    30.07S
MASON CITY     SUNNY     71  37  28 S17       30.05F
CHARLES CITY   SUNNY     70  32  24 S10       30.07S
OELWEIN        SUNNY     72  32  23 S16       30.09S
$$

...ELSEWHERE IN IOWA...


CITY           SKY/WX    TMP DP  RH WIND       PRES   REMARKS
DES MOINES     MOSUNNY   75  53  46 SE14      30.04F
IOWA CITY      CLOUDY    76  49  38 S12       30.10F
FORT DODGE     SUNNY     74  47  38 S9G17     30.02F
MARSHALLTOWN   CLOUDY    74  46  36 S13       30.04F
CEDAR RAPIDS   SUNNY     71  42  35 SE10      30.08F
$$

...NORTHERN ILLINOIS...


CITY           SKY/WX    TMP DP  RH WIND       PRES   REMARKS
CHICAGO-OHARE  PTSUNNY   67  24  19 E10       30.16S
CHICAGO-MIDWAY PTSUNNY   67  23  19 E6        30.17S
MOLINE         SUNNY     76  46  34 SE9       30.11S
ROCKFORD       CLOUDY    71  31  22 SE5       30.15S
PEORIA         SUNNY     74  53  48 S6        30.13F
$$

NOTE: "FAIR" INDICATES FEW OR NO CLOUDS BELOW 12,000 FEET WITH NO
SIGNIFICANT WEATHER AND/OR OBSTRUCTIONS TO VISIBILITY. WIND
SPEEDS ARE IN MILES-PER-HOUR.




USA.gov is the U.S. government's official web portal to all federal, state and local government web resources and services.